"2010-09-04 00:00:00",129901,1.745,191.7,3.125,0.113,17.96,108.2413,20.38,21.26,21.73,0,111.1,13.12,21.20,153.7
"2010-09-04 00:00:30",129902,1.652,195.6,3.101,0.143,17.98,108.2306,20.35,21.24,21.72,0,111.1,13.12,21.17,157.6
"2010-09-04 00:01:00",129903,1.472,207.5,3.472,0.145,17.88,108.2275,20.34,21.25,21.72,0,111.1,13.12,21.17,169.5
"2010-09-04 00:01:30",129904,1.286,209.5,9.83,0.126,17.88,108.2256,20.34,21.23,21.73,0,111.1,13.12,21.16,171.5
"2010-09-04 00:02:00",129905,1.136,189.5,11.02,0.256,17.94,108.2241,20.33,21.22,21.77,0,111.1,13.12,21.16,151.5
"2010-09-04 00:02:30",129906,1.203,193.6,7.152,0.249,17.86,108.2213,20.33,21.23,21.81,0,111.2,13.12,21.15,155.6
"2010-09-04 00:03:00",129907,1.272,207.5,11.3,0.255,17.84,108.2219,20.33,21.21,21.8,0,111.1,13.12,21.15,169.5
"2010-09-04 00:03:30",129908,1.331,209.6,8.09,0.083,17.82,108.2205,20.33,21.21,21.77,0,111.1,13.12,21.15,171.6
"2010-09-04 00:04:00",129909,1.172,190.3,4.798,0.127,17.92,108.2202,20.32,21.22,21.8,0,111.1,13.12,21.15,152.3
"2010-09-04 00:04:30",129910,1.094,204.9,7.757,0.128,17.87,108.2185,20.32,21.22,21.8,0,111.1,13.12,21.14,166.9
"2010-09-04 00:05:00",129911,0.992,205.4,8.32,0.19,17.87,108.2183,20.32,21.21,21.8,0,111.1,13.12,21.14,167.4
"2010-09-04 00:05:30",129912,0.821,195.7,10.9,0.096,17.86,108.2183,20.32,21.22,21.74,0,111.1,13.12,21.14,157.7
"2010-09-04 00:06:00",129913,0.592,214.1,13.79,0.126,17.8,108.2183,20.32,21.21,21.71,0,111.1,13.12,21.14,176.1
"2010-09-04 00:06:30",129914,0.447,226.5,8.95,0.113,17.77,108.2183,20.32,21.22,21.73,0,111.1,13.11,21.14,188.5
"2010-09-04 00:07:00",129915,0.699,213.3,9.33,0.211,17.75,108.2183,20.32,21.2,21.78,0,111.1,13.11,21.14,175.3
"2010-09-04 00:07:30",129916,0.928,225.6,4.872,0.154,17.74,108.2183,20.32,21.2,21.8,0,111.1,13.11,21.14,187.6
"2010-09-04 00:08:00",129917,0.75,225,9.63,0.081,17.78,108.2183,20.32,21.2,21.83,0,111.1,13.11,21.14,187.0
"2010-09-04 00:08:30",129918,0.785,223.8,6.517,0.126,17.76,108.2183,20.32,21.2,21.81,0,111.1,13.11,21.14,185.8
"2010-09-04 00:09:00",129919,0.772,235.9,5.232,0.067,17.77,108.2183,20.32,21.21,21.79,0,111.1,13.11,21.14,197.9
"2010-09-04 00:09:30",129920,1.093,235.7,3.955,0.073,17.76,108.2183,20.32,21.22,21.8,0,111.1,13.11,21.14,197.7
"2010-09-04 00:10:00",129921,0.91,240.3,5.606,0.12,17.81,108.2183,20.32,21.2,21.76,0,111.1,13.11,21.14,202.3
"2010-09-04 00:10:30",129922,0.569,217.7,4.449,0.187,17.81,108.2183,20.32,21.2,21.64,0,111.1,13.11,21.14,179.7
"2010-09-04 00:11:00",129923,0.518,224.4,5.831,0.113,17.79,108.2188,20.32,21.21,21.62,0,111.1,13.11,21.14,186.4
"2010-09-04 00:11:30",129924,0.653,228.9,6.334,0.064,17.74,108.2185,20.32,21.21,21.69,0,111.1,13.11,21.14,190.9
"2010-09-04 00:12:00",129925,0.48,216.5,7.287,0.064,17.75,108.2191,20.32,21.2,21.63,0,111.1,13.11,21.14,178.5
"2010-09-04 00:12:30",129926,0.528,190.8,15.26,0.09,17.79,108.2216,20.33,21.2,21.59,0,111.1,13.12,21.15,152.8
"2010-09-04 00:13:00",129927,0.707,192.6,12.35,0.176,17.79,108.2261,20.34,21.22,21.64,0,111.2,13.12,21.16,154.6
"2010-09-04 00:13:30",129928,0.98,195.3,11.94,0.185,17.77,108.2261,20.34,21.23,21.67,0,111.2,13.12,21.16,157.3
"2010-09-04 00:14:00",129929,1.143,185,4.387,0.177,17.84,108.2256,20.34,21.21,21.61,0,111.2,13.12,21.16,147.0
"2010-09-04 00:14:30",129930,1.021,184.6,12.1,0.112,17.86,108.2253,20.34,21.21,21.63,0,111.1,13.12,21.16,146.6
"2010-09-04 00:15:00",129931,0.842,181.8,8.27,0.084,17.9,108.2275,20.34,21.22,21.55,0,111.2,13.12,21.17,143.8
"2010-09-04 00:15:30",129932,1.097,187.4,2.475,0.121,17.84,108.2261,20.34,21.23,21.53,0,111.2,13.12,21.16,149.4
"2010-09-04 00:16:00",129933,1.117,196.5,3.744,0.078,17.79,108.2267,20.34,21.23,21.68,0,111.2,13.12,21.16,158.5
"2010-09-04 00:16:30",129934,1.045,204.9,5.245,0.096,17.84,108.2261,20.34,21.22,21.77,0,111.2,13.12,21.16,166.9
"2010-09-04 00:17:00",129935,0.931,202.8,4.657,0.079,17.84,108.2261,20.34,21.23,21.65,0,111.2,13.12,21.16,164.8
"2010-09-04 00:17:30",129936,0.842,209.2,9.79,0.129,17.82,108.2239,20.33,21.21,21.41,0,111.2,13.12,21.16,171.2
"2010-09-04 00:18:00",129937,0.916,210.9,4.472,0.1,17.87,108.2261,20.34,21.22,21.62,0,111.2,13.12,21.16,172.9
"2010-09-04 00:18:30",129938,0.774,219.1,9.62,0.201,17.84,108.2258,20.34,21.22,21.64,0,111.2,13.12,21.16,181.1
"2010-09-04 00:19:00",129939,0.734,216.2,7.476,0.05,17.84,108.2258,20.34,21.22,21.7,0,111.2,13.12,21.16,178.2
"2010-09-04 00:19:30",129940,1.066,204.5,4.535,0.166,17.85,108.2267,20.34,21.21,21.54,0,111.2,13.11,21.16,166.5
"2010-09-04 00:20:00",129941,1.069,204.4,2.024,0.049,17.9,108.2267,20.34,21.21,21.21,0,111.2,13.12,21.16,166.4
"2010-09-04 00:20:30",129942,0.951,203.1,6.885,0.086,17.9,108.2278,20.34,21.22,21.3,0,111.2,13.12,21.17,165.1
"2010-09-04 00:21:00",129943,1.065,191.6,4.343,0.111,17.93,108.2303,20.35,21.23,21.27,0,111.2,13.12,21.17,153.6
"2010-09-04 00:21:30",129944,0.941,198.9,11.09,0.118,18,108.2348,20.36,21.22,21.46,0,111.2,13.12,21.19,160.9
"2010-09-04 00:22:00",129945,0.92,205.8,5.168,0.215,17.92,108.2418,20.38,21.21,21.62,0,111.2,13.12,21.20,167.8
"2010-09-04 00:22:30",129946,1.182,211.3,5.114,0.124,17.93,108.2494,20.4,21.24,21.67,0,111.2,13.12,21.22,173.3
"2010-09-04 00:23:00",129947,1.338,205.1,7.542,0.106,17.96,108.2514,20.4,21.24,21.57,0,111.2,13.12,21.23,167.1
"2010-09-04 00:23:30",129948,1.13,195,15.4,0.148,18.03,108.2517,20.41,21.23,21.21,0,111.2,13.11,21.23,157.0
"2010-09-04 00:24:00",129949,1.053,182.3,4.489,0.165,18.09,108.2519,20.41,21.25,20.37,0,111.2,13.11,21.23,144.3
"2010-09-04 00:24:30",129950,1.199,185.1,2.853,0.102,18.05,108.2519,20.41,21.24,19.89,0,111.2,13.11,21.23,147.1
"2010-09-04 00:25:00",129951,1.067,189.4,4.426,0.093,18.07,108.2519,20.41,21.25,19.87,0,111.2,13.11,21.23,151.4
"2010-09-04 00:25:30",129952,0.959,188.5,2.336,0.036,18.13,108.2519,20.41,21.25,20,0,111.2,13.11,21.23,150.5
"2010-09-04 00:26:00",129953,1.045,178.2,4.372,0.098,18.1,108.2519,20.41,21.25,20.06,0,111.2,13.11,21.23,140.2
"2010-09-04 00:26:30",129954,1.279,178.4,4.267,0.086,18.03,108.2519,20.41,21.26,19.21,0,111.2,13.11,21.23,140.4
"2010-09-04 00:27:00",129955,1.312,180.4,2.406,0.116,18.08,108.2545,20.41,21.27,19.07,0,111.2,13.11,21.24,142.4
"2010-09-04 00:27:30",129956,1.241,178,3.174,0.077,18.05,108.2595,20.43,21.28,19.07,0,111.2,13.11,21.25,140.0
"2010-09-04 00:28:00",129957,1.299,175.1,1.216,0.088,18.07,108.2632,20.43,21.3,19.18,0,111.2,13.11,21.26,137.1
"2010-09-04 00:28:30",129958,1.191,178.5,1.92,0.08,18.1,108.2654,20.44,21.28,19.01,0,111.2,13.11,21.26,140.5
"2010-09-04 00:29:00",129959,1.525,179.8,3.886,0.131,18.11,108.2688,20.45,21.3,19.45,0,111.2,13.11,21.27,141.8
"2010-09-04 00:29:30",129960,1.224,164.6,14.05,0.2,18.08,108.2691,20.45,21.3,20.35,0,111.2,13.11,21.27,126.6
"2010-09-04 00:30:00",129961,0.193,184,45.01,0.213,18.19,108.2713,20.46,21.3,20.54,0,111.2,13.11,21.28,146.0
"2010-09-04 00:30:30",129962,0.234,187.5,26.91,0.187,18.16,108.2648,20.44,21.32,20.45,0,111.2,13.11,21.26,149.5
"2010-09-04 00:31:00",129963,0.59,215.8,7.821,0.256,18.05,108.262,20.43,21.32,20.49,0,111.2,13.12,21.26,177.8
"2010-09-04 00:31:30",129964,0.909,220.5,9.49,0.256,18.06,108.2598,20.43,21.31,20.22,0,111.2,13.12,21.25,182.5
"2010-09-04 00:32:00",129965,0.387,216.8,19.54,0.278,18.14,108.2556,20.42,21.32,20.38,0,111.2,13.12,21.24,178.8
"2010-09-04 00:32:30",129966,0.267,196.1,34.04,0.337,18.24,108.2522,20.41,21.31,20.33,0,111.2,13.12,21.23,158.1
"2010-09-04 00:33:00",129967,1.057,204,2.738,0.119,18.09,108.2519,20.41,21.3,20.09,0,111.2,13.12,21.23,166.0
"2010-09-04 00:33:30",129968,0.907,207.6,4.059,0.078,18.1,108.2519,20.41,21.3,20.21,0,111.2,13.12,21.23,169.6
"2010-09-04 00:34:00",129969,1.047,209.9,4.767,0.078,18.08,108.2519,20.41,21.29,20.6,0,111.2,13.12,21.23,171.9
"2010-09-04 00:34:30",129970,0.863,193.8,4.628,0.094,18.11,108.2519,20.41,21.28,20.34,0,111.2,13.11,21.23,155.8
"2010-09-04 00:35:00",129971,0.849,173.7,13.66,0.194,18.12,108.2519,20.41,21.27,20.01,0,111.2,13.12,21.23,135.7
"2010-09-04 00:35:30",129972,0.594,165.6,9.9,0.254,18.01,108.2379,20.37,21.27,21.11,0,111.2,13.12,21.19,127.6
"2010-09-04 00:36:00",129973,0,144.4,82.9,0.116,18.2,108.2197,20.32,21.25,21.15,0,111.2,13.12,21.15,106.4
"2010-09-04 00:36:30",129974,0.382,268.5,22.41,0.154,18.04,108.2183,20.32,21.26,21.02,0,111.2,13.12,21.14,230.5
"2010-09-04 00:37:00",129975,0.724,297.6,9.31,0.218,17.9,108.2183,20.32,21.24,21.17,0,111.2,13.12,21.14,259.6
"2010-09-04 00:37:30",129976,0.525,283,20.18,0.292,17.95,108.1978,20.27,21.22,21.23,0,111.1,13.12,21.09,245.0
"2010-09-04 00:38:00",129977,0.997,262.4,10.49,0.152,18,108.1846,20.23,21.2,21.14,0,111.2,13.12,21.06,224.4
"2010-09-04 00:38:30",129978,1.173,243.1,6.762,0.138,17.97,108.1846,20.23,21.19,21.13,0,111.2,13.12,21.06,205.1
"2010-09-04 00:39:00",129979,0.94,269.4,11.28,0.116,18.1,108.1846,20.23,21.16,21.25,0,111.2,13.12,21.06,231.4
"2010-09-04 00:39:30",129980,0.354,264.9,26.72,0.22,18.08,108.1846,20.23,21.18,21.23,0,111.1,13.12,21.06,226.9
"2010-09-04 00:40:00",129981,0.524,226.1,9.91,0.107,18.05,108.1846,20.23,21.16,21.08,0,111.1,13.12,21.06,188.1
"2010-09-04 00:40:30",129982,0.344,203.5,13.5,0.113,18.08,108.1846,20.23,21.16,21.13,0,111.1,13.11,21.06,165.5
"2010-09-04 00:41:00",129983,0.194,278.9,57.32,0.243,17.91,108.1846,20.23,21.15,21.42,0,111.1,13.11,21.06,240.9
"2010-09-04 00:41:30",129984,0.402,311,22.42,0.287,17.97,108.1882,20.24,21.15,21.45,0,111.1,13.11,21.07,273.0
"2010-09-04 00:42:00",129985,0.613,284.5,16.29,0.249,17.75,108.1778,20.22,21.16,21.67,0,111.1,13.11,21.04,246.5
"2010-09-04 00:42:30",129986,0.405,320.5,5.227,0.071,17.81,108.1509,20.15,21.13,21.62,0,111.1,13.11,20.97,282.5
"2010-09-04 00:43:00",129987,0.161,303.9,23.95,0.137,18.16,108.1509,20.15,21.1,21.55,0,111.1,13.11,20.97,265.9
"2010-09-04 00:43:30",129988,0.013,253,42.67,0.119,18.21,108.1526,20.15,21.09,21.55,0,111.1,13.11,20.97,215.0
"2010-09-04 00:44:00",129989,0.389,291.3,16.26,0.192,17.92,108.1554,20.16,21.09,21.48,0,111.1,13.11,20.98,253.3
"2010-09-04 00:44:30",129990,0.438,310.4,9.51,0.107,17.91,108.1515,20.15,21.08,21.5,0,111.1,13.11,20.97,272.4
"2010-09-04 00:45:00",129991,0.53,292,11.96,0.218,17.94,108.1501,20.14,21.06,21.58,0,111.1,13.11,20.97,254.0
"2010-09-04 00:45:30",129992,0.165,275.5,20.51,0.133,17.96,108.1327,20.1,21.04,21.62,0,111.1,13.11,20.92,237.5
"2010-09-04 00:46:00",129993,0.139,319.4,27.16,0.189,18.13,108.1203,20.07,21.03,21.56,0,111.1,13.11,20.89,281.4
"2010-09-04 00:46:30",129994,0.089,296.1,29.98,0.151,17.95,108.1193,20.07,21.03,21.7,0,111.1,13.12,20.89,258.1
"2010-09-04 00:47:00",129995,0.1,247,49.57,0.14,17.96,108.1178,20.06,21,21.68,0,111.1,13.12,20.88,209.0
"2010-09-04 00:47:30",129996,0.549,315.7,14.53,0.161,17.89,108.1199,20.07,21.01,21.59,0,111.1,13.12,20.89,277.7
"2010-09-04 00:48:00",129997,0.157,254.4,82.1,0.203,18,108.1193,20.07,21,21.51,0,111.1,13.12,20.89,216.4
"2010-09-04 00:48:30",129998,0.134,163.8,55.83,0.249,18.02,108.1254,20.08,21,21.5,0,111.1,13.12,20.90,125.8
"2010-09-04 00:49:00",129999,0.576,158,30.07,0.322,17.91,108.1342,20.1,21.01,21.34,0,111.1,13.12,20.93,120.0
"2010-09-04 00:49:30",130000,1.19,159.6,12.22,0.364,18.03,108.1433,20.13,21,20.97,0,111.1,13.12,20.95,121.6
"2010-09-04 00:50:00",130001,0.588,187.1,17.53,0.154,18.11,108.1539,20.15,21.03,20.62,0,111.1,13.12,20.98,149.1
"2010-09-04 00:50:30",130002,0.509,202.1,12.62,0.227,18.09,108.1554,20.16,21.03,20.9,0,111.1,13.12,20.98,164.1
"2010-09-04 00:51:00",130003,0.467,189.8,8.72,0.166,18.09,108.1557,20.16,21.05,21,0,111.1,13.12,20.98,151.8
"2010-09-04 00:51:30",130004,0.312,213.7,17.65,0.208,18.04,108.157,20.16,21.06,21.14,0,111.1,13.12,20.98,175.7
"2010-09-04 00:52:00",130005,0.499,266.7,31.85,0.269,18.04,108.1597,20.17,21.04,21.22,0,111.1,13.12,20.99,228.7
"2010-09-04 00:52:30",130006,0.817,238.2,7.864,0.13,18.02,108.1563,20.16,21.05,21.29,0,111.1,13.12,20.98,200.2
"2010-09-04 00:53:00",130007,0.637,271.1,24.77,0.196,18.06,108.1473,20.14,21.03,21.34,0,111.1,13.12,20.96,233.1
"2010-09-04 00:53:30",130008,0.713,286.9,17.32,0.229,18.05,108.136,20.11,21.01,21.51,0,111.1,13.12,20.93,248.9
"2010-09-04 00:54:00",130009,0.219,309.1,26.72,0.16,18.22,108.1412,20.12,21.02,21.67,0,111.1,13.12,20.94,271.1
"2010-09-04 00:54:30",130010,0.853,299.5,8.74,0.121,17.9,108.1397,20.12,21.01,21.8,0,111.1,13.12,20.94,261.5
"2010-09-04 00:55:00",130011,1.017,315.1,7.086,0.116,17.86,108.1192,20.07,20.99,21.94,0,111.1,13.12,20.89,277.1
"2010-09-04 00:55:30",130012,0.65,354.5,17.54,0.235,18.29,108.1081,20.04,20.98,21.89,0,111.1,13.12,20.86,316.5
"2010-09-04 00:56:00",130013,0.694,336.3,7.999,0.124,18.02,108.1102,20.04,20.95,22.04,0,111.1,13.12,20.86,298.3
"2010-09-04 00:56:30",130014,0.75,318.5,5.7,0.223,17.91,108.1026,20.02,20.93,22.06,0,111.1,13.12,20.84,280.5
"2010-09-04 00:57:00",130015,0.942,327.5,5.993,0.202,18,108.0813,19.97,20.9,22.12,0,111.1,13.12,20.79,289.5
"2010-09-04 00:57:30",130016,0.818,329,4.801,0.088,18.05,108.0771,19.96,20.89,22.18,0,111.1,13.12,20.78,291.0
"2010-09-04 00:58:00",130017,0.879,336,6.932,0.113,18.04,108.0763,19.96,20.87,22.26,0,111.1,13.11,20.78,298.0
"2010-09-04 00:58:30",130018,0.919,342.8,6.844,0.198,18.09,108.062,19.92,20.85,22.29,0,111.1,13.12,20.74,304.8
"2010-09-04 00:59:00",130019,1.137,348,4.73,0.125,18.22,108.0474,19.88,20.83,22.33,0,111.1,13.11,20.70,310.0
"2010-09-04 00:59:30",130020,1.25,333.9,8.25,0.272,18.1,108.0438,19.87,20.81,22.37,0,111.1,13.11,20.69,295.9
"2010-09-04 01:00:00",130021,1.419,330,5.881,0.208,18.19,108.0489,19.89,20.78,22.36,0,111.1,13.11,20.71,292.0
"2010-09-04 01:00:30",130022,1.762,325,3.381,0.081,18.11,108.0505,19.89,20.78,22.36,0,111.1,13.11,20.71,287.0
"2010-09-04 01:01:00",130023,1.837,331.8,3.077,0.142,18.15,108.0381,19.86,20.76,22.36,0,111.1,13.11,20.68,293.8
"2010-09-04 01:01:30",130024,1.757,331.2,4.613,0.208,18.2,108.0255,19.83,20.75,22.4,0,111.1,13.11,20.65,293.2
"2010-09-04 01:02:00",130025,1.73,320.7,4.99,0.154,18.28,108.0224,19.82,20.72,22.4,0,111.1,13.11,20.64,282.7
"2010-09-04 01:02:30",130026,1.996,333.6,1.891,0.052,18.18,108.0189,19.81,20.71,22.37,0,111.1,13.11,20.63,295.6
"2010-09-04 01:03:00",130027,1.87,328.2,2.003,0.046,18.17,108.0169,19.8,20.69,22.44,0,111.1,13.12,20.62,290.2
"2010-09-04 01:03:30",130028,1.805,326.4,3.3,0.095,18.22,108.0054,19.77,20.68,22.45,0,111.1,13.12,20.59,288.4
"2010-09-04 01:04:00",130029,1.743,325.7,3.55,0.106,18.26,107.9933,19.74,20.67,22.47,0,111.1,13.12,20.56,287.7
"2010-09-04 01:04:30",130030,1.585,323.3,1.962,0.069,18.32,107.993,19.74,20.66,22.49,0,111.1,13.12,20.56,285.3
"2010-09-04 01:05:00",130031,1.551,324,1.454,0.118,18.38,107.9897,19.73,20.65,22.51,0,111.1,13.12,20.55,286.0
"2010-09-04 01:05:30",130032,1.326,319.8,2.191,0.076,18.38,107.9899,19.73,20.65,22.54,0,111.1,13.12,20.55,281.8
"2010-09-04 01:06:00",130033,1.167,316.1,1.857,0.052,18.41,107.9933,19.74,20.64,22.53,0,111.1,13.12,20.56,278.1
"2010-09-04 01:06:30",130034,1.12,313.6,3.086,0.06,18.57,107.9956,19.75,20.65,22.54,0,111.1,13.12,20.57,275.6
"2010-09-04 01:07:00",130035,1.135,313,1.292,0.06,18.58,108.0076,19.78,20.65,22.5,0,111.1,13.12,20.60,275.0
"2010-09-04 01:07:30",130036,1.095,311.6,1.272,0.04,18.71,108.0172,19.8,20.67,22.48,0,111.1,13.13,20.62,273.6
"2010-09-04 01:08:00",130037,0.898,308.9,4.629,0.048,18.64,108.0189,19.81,20.68,22.47,0,111.1,13.13,20.63,270.9
"2010-09-04 01:08:30",130038,0.639,291.4,10,0.065,18.68,108.0189,19.81,20.68,22.34,0,111.1,13.13,20.63,253.4
"2010-09-04 01:09:00",130039,0.57,275.7,3.074,0.103,18.62,108.0284,19.83,20.7,22.24,0,111.1,13.13,20.65,237.7
"2010-09-04 01:09:30",130040,0.492,270.7,7.566,0.168,18.57,108.0451,19.88,20.72,22.16,0,111.1,13.13,20.70,232.7
"2010-09-04 01:10:00",130041,0.284,271.9,10.44,0.108,18.53,108.0596,19.91,20.73,22.1,0,111.1,13.13,20.73,233.9
"2010-09-04 01:10:30",130042,0.005,222.4,16.69,0.083,18.8,108.0689,19.94,20.75,22.08,0,111.1,13.13,20.76,184.4
"2010-09-04 01:11:00",130043,-0.125,235.6,19.16,0.009,18.49,108.0763,19.96,20.76,22.11,0,111.1,13.13,20.78,197.6
"2010-09-04 01:11:30",130044,-0.046,289,21.73,0.064,18.56,108.0703,19.94,20.76,22.05,0,111.1,13.13,20.76,251.0
"2010-09-04 01:12:00",130045,-0.051,67.84,54.2,0.066,18.6,108.0765,19.96,20.76,21.96,0,111.1,13.14,20.78,29.8
"2010-09-04 01:12:30",130046,0.138,216.7,44.72,0.16,18.82,108.0799,19.96,20.78,21.8,0,111.1,13.14,20.79,178.7
"2010-09-04 01:13:00",130047,0.038,231.7,11.57,0.045,18.83,108.0802,19.97,20.77,21.85,0,111.1,13.14,20.79,193.7
"2010-09-04 01:13:30",130048,0.06,229.4,6.614,0.039,18.87,108.0814,19.97,20.8,21.94,0,111.1,13.14,20.79,191.4
"2010-09-04 01:14:00",130049,-0.038,257.3,13.75,0,18.68,108.0853,19.98,20.8,21.73,0,111.1,13.14,20.80,219.3
"2010-09-04 01:14:30",130050,-0.04,278.6,15.77,0.024,18.65,108.0875,19.98,20.81,21.71,0,111.1,13.14,20.81,240.6
"2010-09-04 01:15:00",130051,-0.119,267.5,10.02,0.018,18.65,108.0884,19.99,20.82,21.69,0,111.1,13.13,20.81,229.5
"2010-09-04 01:15:30",130052,-0.066,231.2,18.6,0.041,18.85,108.089,19.99,20.82,21.59,0,111.1,13.13,20.81,193.2
"2010-09-04 01:16:00",130053,-0.016,222.3,6.019,0.081,18.9,108.089,19.99,20.82,21.6,0,111.1,13.13,20.81,184.3
"2010-09-04 01:16:30",130054,0.138,226.8,3.484,0.044,18.99,108.089,19.99,20.84,21.68,0,111,13.13,20.81,188.8
"2010-09-04 01:17:00",130055,0.069,218.7,4.632,0.05,19.02,108.089,19.99,20.84,21.68,0,111,13.13,20.81,180.7
"2010-09-04 01:17:30",130056,0.172,230.4,4.499,0.045,19.04,108.089,19.99,20.84,21.77,0,111,13.13,20.81,192.4
"2010-09-04 01:18:00",130057,0.214,234.7,7.373,0.059,19.08,108.089,19.99,20.86,21.82,0,111,13.13,20.81,196.7
"2010-09-04 01:18:30",130058,0.297,238.1,10.76,0.061,19.11,108.089,19.99,20.85,21.83,0,111,13.13,20.81,200.1
"2010-09-04 01:19:00",130059,0.36,266.8,8.44,0.037,19.14,108.089,19.99,20.84,21.79,0,111,13.13,20.81,228.8
"2010-09-04 01:19:30",130060,0.317,269.3,6.126,0.109,19.14,108.089,19.99,20.85,21.8,0,111,13.13,20.81,231.3
"2010-09-04 01:20:00",130061,0.357,292.5,5.738,0.061,19.33,108.089,19.99,20.85,21.5,0,111,13.14,20.81,254.5
"2010-09-04 01:20:30",130062,0.371,293.6,3.589,0.041,19.3,108.089,19.99,20.84,21.63,0,111,13.14,20.81,255.6
"2010-09-04 01:21:00",130063,0.365,278.6,12.3,0.061,19.38,108.0899,19.99,20.87,21.22,0,111,13.14,20.81,240.6
"2010-09-04 01:21:30",130064,0.338,285.8,5.988,0.103,19.38,108.0954,20,20.86,21.25,0,111,13.14,20.83,247.8
"2010-09-04 01:22:00",130065,0.145,295.3,5.901,0.057,19.31,108.1054,20.03,20.88,21.48,0,111,13.14,20.85,257.3
"2010-09-04 01:22:30",130066,0.057,279.3,6.395,0.059,19.25,108.1145,20.05,20.87,21.56,0,111,13.14,20.88,241.3
"2010-09-04 01:23:00",130067,0.05,269.4,7.559,0.032,19.16,108.1163,20.06,20.88,21.7,0,111,13.15,20.88,231.4
"2010-09-04 01:23:30",130068,-0.019,276.1,8.51,0.048,19.23,108.1169,20.06,20.89,21.56,0,111,13.15,20.88,238.1
"2010-09-04 01:24:00",130069,-0.007,293,7.102,0.039,19.33,108.1194,20.07,20.89,21.38,0,111,13.15,20.89,255.0
"2010-09-04 01:24:30",130070,-0.019,267.2,13.16,0.044,19.29,108.123,20.08,20.9,21.32,0,111,13.15,20.90,229.2
"2010-09-04 01:25:00",130071,-0.083,238.8,13.13,0.032,19.31,108.124,20.08,20.9,21.43,0,111,13.15,20.90,200.8
"2010-09-04 01:25:30",130072,-0.063,236.8,6.887,0.036,19.37,108.1181,20.06,20.89,21.55,0,111,13.15,20.88,198.8
"2010-09-04 01:26:00",130073,-0.028,240.2,6.246,0.019,19.26,108.1018,20.02,20.89,21.71,0,111,13.15,20.84,202.2
"2010-09-04 01:26:30",130074,-0.035,257.7,16.83,0.051,19.17,108.092,20,20.89,21.72,0,111,13.15,20.82,219.7
"2010-09-04 01:27:00",130075,-0.058,291,10.58,0.061,19.22,108.0917,19.99,20.88,21.74,0,111,13.15,20.82,253.0
"2010-09-04 01:27:30",130076,-0.029,306,13.81,0.046,19.27,108.0903,19.99,20.86,21.78,0,111,13.15,20.81,268.0
"2010-09-04 01:28:00",130077,-0.005,314.3,4.967,0.059,19.33,108.0782,19.96,20.87,21.78,0,111,13.15,20.78,276.3
"2010-09-04 01:28:30",130078,0.072,320.4,5.187,0.037,19.37,108.0687,19.94,20.86,21.84,0,111,13.15,20.76,282.4
"2010-09-04 01:29:00",130079,0.078,322.4,3.898,0.03,19.39,108.0663,19.93,20.84,21.84,0,110.9,13.15,20.75,284.4
"2010-09-04 01:29:30",130080,0.094,328.2,7.723,0.066,19.35,108.0613,19.92,20.83,21.94,0,110.9,13.15,20.74,290.2
"2010-09-04 01:30:00",130081,0.014,318,4.036,0.024,19.41,108.0656,19.93,20.83,21.86,0,110.9,13.15,20.75,280.0
"2010-09-04 01:30:30",130082,0.03,332,9.03,0.025,19.55,108.0717,19.94,20.82,21.87,0,110.9,13.16,20.77,294.0
"2010-09-04 01:31:00",130083,0.02,314.9,5.939,0.003,19.4,108.0802,19.97,20.8,21.87,0,110.9,13.16,20.79,276.9
"2010-09-04 01:31:30",130084,0.075,320.8,7.447,0.063,19.48,108.0833,19.97,20.81,21.86,0,110.9,13.16,20.80,282.8
"2010-09-04 01:32:00",130085,0.045,291,12.39,0.078,19.28,108.0771,19.96,20.81,21.8,0,110.9,13.16,20.78,253.0
"2010-09-04 01:32:30",130086,-0.059,282.3,12.12,0.046,19.22,108.0612,19.92,20.81,21.73,0,110.9,13.15,20.74,244.3
"2010-09-04 01:33:00",130087,0.167,257.6,12.05,0.182,19.41,108.0567,19.91,20.78,21.33,0,110.9,13.15,20.73,219.6
"2010-09-04 01:33:30",130088,0.45,233.4,5.631,0.076,19.56,108.0783,19.96,20.8,21,0,110.9,13.15,20.78,195.4
"2010-09-04 01:34:00",130089,0.319,228.9,7.952,0.052,19.54,108.0944,20,20.8,20.93,0,110.9,13.15,20.82,190.9
"2010-09-04 01:34:30",130090,0.245,208.5,9.42,0.075,19.49,108.095,20,20.82,20.74,0,110.9,13.15,20.83,170.5
"2010-09-04 01:35:00",130091,0.36,217,4.699,0.07,19.5,108.1015,20.02,20.85,20.8,0,110.9,13.15,20.84,179.0
"2010-09-04 01:35:30",130092,0.361,226.4,8.97,0.073,19.56,108.1029,20.02,20.86,20.87,0,110.9,13.16,20.85,188.4
"2010-09-04 01:36:00",130093,0.299,214.1,5.838,0.049,19.38,108.104,20.03,20.86,20.96,0,110.9,13.16,20.85,176.1
"2010-09-04 01:36:30",130094,0.343,216,5.242,0.052,19.46,108.1029,20.02,20.88,20.93,0,110.9,13.16,20.85,178.0
"2010-09-04 01:37:00",130095,0.4,222.2,2.88,0.045,19.53,108.1029,20.02,20.88,20.91,0,110.9,13.16,20.85,184.2
"2010-09-04 01:37:30",130096,0.284,225,4.492,0.05,19.5,108.1033,20.02,20.89,20.92,0,110.9,13.16,20.85,187.0
"2010-09-04 01:38:00",130097,0.513,205.9,11.25,0.18,19.34,108.1081,20.04,20.89,20.54,0,110.9,13.17,20.86,167.9
"2010-09-04 01:38:30",130098,0.741,184.5,4.687,0.092,19.46,108.1232,20.08,20.91,20.17,0,110.9,13.17,20.90,146.5
"2010-09-04 01:39:00",130099,0.673,187.2,5.25,0.068,19.4,108.1526,20.15,20.92,19.88,0,110.9,13.17,20.97,149.2
"2010-09-04 01:39:30",130100,0.645,183.3,5.642,0.074,19.42,108.1558,20.16,20.94,19.93,0,110.9,13.17,20.98,145.3
"2010-09-04 01:40:00",130101,0.533,173.3,5.819,0.12,19.5,108.157,20.16,20.95,19.91,0,110.9,13.18,20.98,135.3
"2010-09-04 01:40:30",130102,0.372,191.3,6.311,0.05,19.59,108.1601,20.17,20.98,20.03,0,110.8,13.18,20.99,153.3
"2010-09-04 01:41:00",130103,0.327,193.7,5.224,0.036,19.57,108.1631,20.18,20.98,20.05,0,110.8,13.18,21.00,155.7
"2010-09-04 01:41:30",130104,0.279,189.7,2.386,0.074,19.59,108.1646,20.18,20.99,19.87,0,110.8,13.18,21.00,151.7
"2010-09-04 01:42:00",130105,0.158,172.6,6.778,0.061,19.56,108.1646,20.18,21,20.1,0,110.8,13.18,21.00,134.6
"2010-09-04 01:42:30",130106,0.088,188.1,7.136,0.039,19.43,108.1646,20.18,21,20.04,0,110.8,13.18,21.00,150.1
"2010-09-04 01:43:00",130107,-0.01,188,10.52,0.055,19.39,108.1646,20.18,21.02,20.12,0,110.8,13.18,21.00,150.0
"2010-09-04 01:43:30",130108,0.032,177.1,7.155,0.043,19.37,108.1627,20.18,21.01,20.23,0,110.8,13.18,21.00,139.1
"2010-09-04 01:44:00",130109,0.042,191.5,11.27,0.038,19.34,108.1525,20.15,21,20.21,0,110.8,13.18,20.97,153.5
"2010-09-04 01:44:30",130110,0.011,197.6,13.26,0.049,19.36,108.1419,20.12,21.01,20.22,0,110.8,13.18,20.95,159.6
"2010-09-04 01:45:00",130111,-0.073,187,8.29,0.038,19.57,108.1394,20.12,21.01,20.29,0,110.8,13.18,20.94,149.0
"2010-09-04 01:45:30",130112,-0.117,189.8,13.59,0.017,19.67,108.1355,20.11,21.02,20.32,0,110.8,13.18,20.93,151.8
"2010-09-04 01:46:00",130113,-0.058,193.2,9.83,0.033,19.61,108.1342,20.1,21.01,20.34,0,110.8,13.18,20.93,155.2
"2010-09-04 01:46:30",130114,-0.055,218.8,10.47,0.032,19.58,108.1379,20.11,21,20.35,0,110.8,13.18,20.94,180.8
"2010-09-04 01:47:00",130115,-0.021,227.7,7.894,0.026,19.47,108.1388,20.12,21,20.58,0,110.8,13.19,20.94,189.7
"2010-09-04 01:47:30",130116,0.004,243.9,10.83,0.031,19.34,108.1469,20.14,20.99,20.67,0,110.8,13.19,20.96,205.9
"2010-09-04 01:48:00",130117,0.025,262.4,23.05,0.031,19.33,108.1327,20.1,20.98,20.62,0,110.8,13.19,20.92,224.4